Home > Weather > Klagenfurt > Past weeks

Flag for Austria Weather for the Past 2 Weeks in Klagenfurt, Carinthia, Austria

Now
34 °F

Fog.


Feels Like: 34 °F
Forecast: 30 / 41 °F
Wind: 2 mph from North

Location: Klagenfurt-Flughafen

Current Time: Feb 14, 2016 at 8:28:58 PM

Latest Report: Feb 14, 2016 at 7:50 PM


Visibility: 2 mi

Pressure: 29.39 "Hg

Humidity: 93%

Dew point: 32 °F

Location of KlagenfurtLocation

Historic Weather in Klagenfurt — Graph

°F

Klagenfurt Temperature Yesterday

Maximum temperature yesterday: 37 °F (at 2:50 PM)
Minimum temperature yesterday: 30 °F (at 7:50 AM)
Average temperature yesterday: 33 °F

High & Low Weather Summary for the Past Weeks

 TemperatureHumidityPressure
High55 °F (Feb 1, 2:50 PM)100% (Feb 1, 3:20 AM)30.36 "Hg (Feb 1, 3:20 AM)
Low25 °F (Feb 11, 6:20 AM)32% (Feb 4, 3:50 PM)29.21 "Hg (Feb 10, 4:20 AM)
Average36 °F89%29.89 "Hg
* Reported Jan 30 6:20 PM — Feb 14 6:50 PM, Klagenfurt, Weather by CustomWeather, © 2016

Note: Actual official high and low records may vary slightly from our data, if they occured in-between our weather recording intervals... More about our weather records

Advertising

Klagenfurt Weather History for the Previous 24 Hours

 ConditionsComfort  
Time TempWeatherWind HumidityBarometerVisibility
6:50 PM
Sun, Feb 14
32 °FLight rain. Ice fog.1 mph100%29.39 "Hg2 mi
6:20 PM34 °FLight rain. Fog.1 mph93%29.36 "Hg2 mi
5:50 PM32 °FLight snow. Ice fog.1 mph100%29.36 "Hg2 mi
5:20 PM32 °FSnow. Ice fog.2 mph100%29.36 "Hg1 mi
4:50 PM32 °FLight snow. Ice fog.2 mph100%29.33 "Hg1 mi
4:20 PM34 °FLight snow. Fog.1 mph93%29.33 "Hg2 mi
3:50 PM34 °FLight snow. Fog.2 mph93%29.33 "Hg1 mi
3:20 PM32 °FChilly.1 mph100%29.36 "Hg1 mi
2:50 PM32 °FSleet. Cloudy.2 mph100%29.36 "Hg1 mi
2:20 PM32 °FSnow. Low clouds.2 mph100%29.36 "Hg1 mi
1:50 PM34 °FSnow. Mostly cloudy.2 mph93%29.39 "Hg1 mi
1:20 PM34 °FLight rain. More clouds than sun.2 mph93%29.39 "Hg2 mi
12:50 PM34 °FLight rain. Broken clouds.2 mph87%29.39 "Hg3 mi
12:20 PM34 °FBroken clouds.3 mph93%29.39 "Hg5 mi
11:50 AM34 °FPartly sunny.1 mph87%29.39 "Hg5 mi
11:20 AM32 °FPartly sunny.1 mph93%29.39 "Hg4 mi
10:50 AM32 °FPartly sunny.3 mph93%29.39 "Hg4 mi
10:20 AM32 °FLight freezing rain. Fog.1 mph93%29.42 "Hg3 mi
9:50 AM30 °FLight freezing rain. Fog.1 mph100%29.39 "Hg3 mi
9:20 AM30 °FLight freezing rain. Fog.3 mph100%29.39 "Hg4 mi
8:20 AM30 °FIce fog.5 mph100%29.39 "Hg1 mi
7:50 AM30 °FIce fog.3 mph100%29.39 "Hg1 mi
7:20 AM30 °FIce fog.3 mph100%29.39 "Hg1 mi
6:50 AM30 °FIce fog.3 mph100%29.39 "Hg1 mi
6:20 AM30 °FIce fog.5 mph100%29.39 "Hg1 mi
5:50 AM30 °FIce fog.2 mph100%29.39 "Hg1 mi
4:50 AM30 °FIce fog.5 mph100%29.39 "Hg1 mi
3:50 AM32 °FIce fog.3 mph100%29.36 "Hg2 mi
3:20 AM32 °FIce fog.3 mph100%29.36 "Hg1 mi
2:50 AM32 °FIce fog.5 mph100%29.39 "Hg2 mi
2:20 AM32 °FIce fog.5 mph100%29.39 "Hg3 mi
1:50 AM32 °FIce fog.5 mph93%29.39 "Hg3 mi
1:20 AM32 °FIce fog.1 mph100%29.39 "Hg2 mi
12:50 AM32 °FIce fog.2 mph100%29.39 "Hg2 mi
12:20 AM32 °FIce fog.2 mph100%29.39 "Hg2 mi
11:50 PM
Sat, Feb 13
32 °FIce fog.3 mph100%29.39 "Hg3 mi
11:20 PM32 °FIce fog.2 mph100%29.39 "Hg3 mi
10:50 PM32 °FIce fog.2 mph100%29.39 "Hg3 mi
9:50 PM34 °FFog.1 mph93%29.39 "Hg3 mi
9:20 PM34 °FFog.1 mph93%29.39 "Hg3 mi
8:50 PM34 °FFog.3 mph93%29.39 "Hg3 mi
8:20 PM34 °FLow clouds.1 mph93%29.42 "Hg4 mi
Weather by CustomWeather, © 2016

See weather overviewHow to use our weather pages